GBATI EGCB-EGCB

Flight info

Callsign GBATI
Flight time 0h 10m
Altitude 3000
Route EGCB
Aircraft P28B/L-SDFYR/S

Departure

Time 2026-04-18 17:41
Airport Manchester Barton Aerodrome (EGCB)

Arrival

Time 2026-04-18 17:51
Airport Manchester Barton Aerodrome (EGCB)
Time Latitude Longitude Altitude Speed Heading
2026-04-18 17:38 53.47097 -2.38804 74 ft 0 kts 37°
2026-04-18 17:39 53.47128 -2.38700 76 ft 17 kts 74°
2026-04-18 17:39 53.47141 -2.38546 79 ft 3 kts 23°
2026-04-18 17:40 53.47182 -2.38588 78 ft 11 kts 316°
2026-04-18 17:40 53.47201 -2.38655 78 ft 0 kts 272°
2026-04-18 17:40 53.47201 -2.38660 78 ft 1 kts 272°
2026-04-18 17:40 53.47178 -2.39001 87 ft 65 kts 264°
2026-04-18 17:41 53.47126 -2.39937 348 ft 89 kts 269°
2026-04-18 17:41 53.47058 -2.41000 712 ft 98 kts 267°
2026-04-18 17:41 53.46969 -2.42093 971 ft 92 kts 266°
2026-04-18 17:41 53.46943 -2.43099 1132 ft 84 kts 296°
2026-04-18 17:42 53.47436 -2.43736 1075 ft 100 kts 340°
2026-04-18 17:42 53.48109 -2.43364 1083 ft 119 kts 36°
2026-04-18 17:42 53.48444 -2.41961 944 ft 137 kts 79°
2026-04-18 17:42 53.48518 -2.40529 1016 ft 112 kts 78°
2026-04-18 17:43 53.48533 -2.39196 910 ft 114 kts 85°
2026-04-18 17:43 53.48479 -2.37957 872 ft 95 kts 106°
2026-04-18 17:43 53.48010 -2.37358 715 ft 87 kts 167°
2026-04-18 17:43 53.47469 -2.37238 652 ft 71 kts 223°
2026-04-18 17:44 53.47261 -2.37893 426 ft 66 kts 255°
2026-04-18 17:44 53.47204 -2.38677 91 ft 65 kts 266°
2026-04-18 17:44 53.47158 -2.39300 77 ft 62 kts 265°
2026-04-18 17:44 53.47119 -2.40084 439 ft 66 kts 271°
2026-04-18 17:45 53.47508 -2.40518 555 ft 101 kts 10°
2026-04-18 17:45 53.48067 -2.39633 629 ft 111 kts 48°
2026-04-18 17:45 53.48495 -2.38538 578 ft 111 kts 55°
2026-04-18 17:45 53.48404 -2.37575 576 ft 85 kts 173°
2026-04-18 17:46 53.47801 -2.37435 460 ft 85 kts 171°
2026-04-18 17:46 53.47357 -2.37556 405 ft 63 kts 249°
2026-04-18 17:46 53.47237 -2.38278 202 ft 64 kts 265°
2026-04-18 17:46 53.47186 -2.38963 73 ft 50 kts 262°
2026-04-18 17:47 53.47144 -2.39606 173 ft 70 kts 267°
2026-04-18 17:47 53.47245 -2.40430 473 ft 84 kts 324°
2026-04-18 17:47 53.47880 -2.40050 570 ft 126 kts 51°
2026-04-18 17:47 53.48333 -2.38838 792 ft 117 kts 51°
2026-04-18 17:48 53.48446 -2.37543 811 ft 122 kts 154°
2026-04-18 17:48 53.47691 -2.37299 668 ft 105 kts 178°
2026-04-18 17:48 53.47272 -2.37755 409 ft 76 kts 264°
2026-04-18 17:48 53.47211 -2.38572 127 ft 64 kts 266°
2026-04-18 17:49 53.47168 -2.39196 163 ft 52 kts 268°
2026-04-18 17:49 53.47142 -2.39909 404 ft 74 kts 272°
2026-04-18 17:49 53.47477 -2.40575 746 ft 86 kts 344°
2026-04-18 17:49 53.48115 -2.40155 928 ft 120 kts 39°
2026-04-18 17:50 53.48453 -2.38822 719 ft 119 kts 68°
2026-04-18 17:50 53.48468 -2.37647 557 ft 93 kts 153°
2026-04-18 17:50 53.47881 -2.37396 468 ft 95 kts 179°
2026-04-18 17:50 53.47327 -2.37817 436 ft 79 kts 239°
2026-04-18 17:51 53.47211 -2.38606 116 ft 69 kts 265°
2026-04-18 17:51 53.47161 -2.39257 71 ft 45 kts 263°
2026-04-18 17:51 53.47146 -2.39407 71 ft 1 kts 174°
2026-04-18 17:51 53.47132 -2.39349 70 ft 13 kts 86°
2026-04-18 17:52 53.47121 -2.39165 68 ft 20 kts 133°
2026-04-18 17:52 53.47110 -2.38974 74 ft 14 kts 82°
2026-04-18 17:52 53.47136 -2.38830 73 ft 14 kts 116°
2026-04-18 17:52 53.47139 -2.38803 75 ft 0 kts 336°
2026-04-18 18:03 53.47165 -2.38880 67 ft 24 kts 292°
2026-04-18 18:03 53.47149 -2.39491 156 ft 72 kts 267°
2026-04-18 18:04 53.47388 -2.40650 637 ft 109 kts 43°
2026-04-18 18:04 53.47954 -2.39611 683 ft 124 kts 41°
2026-04-18 18:04 53.48309 -2.37557 648 ft 76 kts 171°
2026-04-18 18:05 53.47337 -2.37670 470 ft 64 kts 250°
2026-04-18 18:05 53.47237 -2.38316 256 ft 55 kts 269°
2026-04-18 18:05 53.47182 -2.38961 77 ft 48 kts 261°
2026-04-18 18:06 53.47117 -2.40431 476 ft 83 kts 286°
2026-04-18 18:06 53.47558 -2.41142 703 ft 104 kts 346°
2026-04-18 18:06 53.48121 -2.40387 975 ft 119 kts 65°
2026-04-18 18:07 53.48421 -2.39133 1008 ft 111 kts 40°
2026-04-18 18:07 53.49020 -2.38855 1246 ft 86 kts 340°
2026-04-18 18:07 53.48597 -2.39589 821 ft 135 kts 131°
2026-04-18 18:08 53.48533 -2.38242 675 ft 108 kts 87°
2026-04-18 18:08 53.48014 -2.37437 553 ft 104 kts 170°
2026-04-18 18:08 53.47451 -2.37483 514 ft 77 kts 234°
2026-04-18 18:08 53.47240 -2.38257 253 ft 70 kts 258°
2026-04-18 18:09 53.47180 -2.38962 75 ft 50 kts 261°
2026-04-18 18:09 53.47144 -2.39517 149 ft 60 kts 268°
2026-04-18 18:09 53.47271 -2.40216 439 ft 81 kts 343°
2026-04-18 18:09 53.47874 -2.39650 608 ft 116 kts 29°
2026-04-18 18:10 53.48446 -2.38718 573 ft 106 kts 53°
2026-04-18 18:10 53.48452 -2.37651 451 ft 95 kts 146°
2026-04-18 18:10 53.47821 -2.37485 324 ft 104 kts 169°
2026-04-18 18:10 53.47341 -2.37582 382 ft 72 kts 245°
2026-04-18 18:11 53.47234 -2.38308 240 ft 56 kts 270°
2026-04-18 18:11 53.47187 -2.38939 71 ft 45 kts 261°
2026-04-18 18:11 53.47201 -2.39385 265 ft 51 kts 281°
2026-04-18 18:11 53.47526 -2.39287 317 ft 93 kts 77°
2026-04-18 18:12 53.47170 -2.38454 183 ft 79 kts 73°
2026-04-18 18:12 53.47466 -2.37887 369 ft 65 kts 334°
2026-04-18 18:12 53.47656 -2.38669 652 ft 75 kts 291°
2026-04-18 18:12 53.47934 -2.39548 944 ft 93 kts 299°
2026-04-18 18:13 53.48131 -2.40653 1167 ft 109 kts 269°
2026-04-18 18:13 53.47957 -2.41961 1313 ft 121 kts 262°
2026-04-18 18:13 53.47765 -2.43406 1376 ft 131 kts 263°
2026-04-18 18:13 53.47748 -2.44744 1610 ft 111 kts 313°
2026-04-18 18:14 53.48443 -2.44539 1414 ft 139 kts 79°
2026-04-18 18:14 53.47934 -2.44416 1201 ft 110 kts 231°
2026-04-18 18:14 53.47449 -2.45370 896 ft 108 kts 256°
2026-04-18 18:14 53.47329 -2.46484 805 ft 103 kts 272°
2026-04-18 18:15 53.47327 -2.47525 710 ft 75 kts 286°
2026-04-18 18:15 53.47610 -2.48159 500 ft 69 kts 319°
2026-04-18 18:15 53.47997 -2.48523 342 ft 61 kts 352°
2026-04-18 18:15 53.48405 -2.48389 160 ft 58 kts 348°
2026-04-18 18:16 53.48684 -2.48637 68 ft 12 kts 282°
2026-04-18 18:16 53.48686 -2.48646 69 ft 0 kts 281°